This is the latest recevied weather packets stored in our database for station/object W0SS-13. If no packets are shown the sender has not sent any weather packets the latest 10 day(s).
| Time | Temp. | Humidity | Pressure | Rain* | Wind** | Luminosity | Snow |
|---|---|---|---|---|---|---|---|
| 1777667778 | 16.67° C | 38% | 1018.5 hPa | 0 mm | - | 296 W/m² | - |
| 1777667476 | 16.67° C | 39% | 1018.6 hPa | 0 mm | - | 207 W/m² | - |
| 1777667172 | 17.22° C | 44% | 1018.7 hPa | 0 mm | - | 226 W/m² | - |
| 1777666869 | 16.67° C | 39% | 1018.7 hPa | 0 mm | - | 362 W/m² | - |
| 1777666560 | 16.67° C | 39% | 1018.7 hPa | 0 mm | - | 257 W/m² | - |
| 1777666256 | 16.67° C | 41% | 1019.1 hPa | 0 mm | - | 208 W/m² | - |
| 1777665954 | 16.67° C | 39% | 1018.8 hPa | 0 mm | - | 176 W/m² | - |
| 1777665651 | 16.67° C | 39% | 1019.1 hPa | 0 mm | - | 169 W/m² | - |
| 1777665349 | 16.67° C | 41% | 1019.1 hPa | 0 mm | - | 165 W/m² | - |
| 1777665044 | 16.67° C | 39% | 1018.9 hPa | 0 mm | - | 159 W/m² | - |
| 1777664436 | 16.67° C | 39% | 1018.9 hPa | 0 mm | - | 173 W/m² | - |
| 1777664133 | 17.22° C | 37% | 1019.3 hPa | 0 mm | - | 260 W/m² | - |
| 1777663832 | 16.67° C | 38% | 1019.2 hPa | 0 mm | - | 605 W/m² | - |
| 1777663226 | 17.22° C | 38% | 1019.2 hPa | 0 mm | - | 301 W/m² | - |
| 1777662923 | 17.22° C | 38% | 1019.3 hPa | 0 mm | - | 648 W/m² | - |
| 1777661708 | 16.67° C | 36% | 1019.4 hPa | 0 mm | - | 378 W/m² | - |
| 1777660492 | 16.67° C | 36% | 1019.3 hPa | 0 mm | - | 843 W/m² | - |
| 1777659279 | 16.67° C | 36% | 1019.7 hPa | 0 mm | - | 838 W/m² | - |
| 1777656856 | 16.11° C | 35% | 1019.8 hPa | 0 mm | - | 404 W/m² | - |
| 1777655942 | 16.11° C | 41% | 1020.1 hPa | 0 mm | - | 826 W/m² | - |
| 1777655639 | 15.56° C | 41% | 1020.3 hPa | 0 mm | - | 783 W/m² | - |
| 1777654730 | 15.56° C | 42% | 1020.3 hPa | 0 mm | - | 768 W/m² | - |
| 1777653823 | 15° C | 41% | 1020.1 hPa | 0 mm | - | 748 W/m² | - |
| 1777653518 | 15° C | 41% | 1020.3 hPa | 0 mm | - | 739 W/m² | - |
| 1777653215 | 15° C | 40% | 1020.4 hPa | 0 mm | - | 732 W/m² | - |
* Rain latest hour (hover to see other rain measurements)
** Current wind speed in m/s (hover to see current wind gust speed)